| time (UTC) | temp C | wind direction | speed KPH | gust KPH | rain 1hr cm | rain 24hr cm | rain mn cm | humidity % | barometer mb |
| 20260507122705 | 13 | 138 | 8.0 | 12.9 | 0.00 | 0.00 | 0.00 | 66 | 1015.6 |
| 20260507122017 | 13 | 142 | 9.7 | 12.9 | 0.00 | 0.00 | 0.00 | 66 | 1015.6 |
| 20260507120903 | 12 | 114 | 9.7 | 17.7 | 0.00 | 0.00 | 0.00 | 66 | 1015.7 |
| 20260507120004 | 12 | 133 | 6.4 | 12.9 | 0.00 | 0.00 | 0.00 | 67 | 1015.8 |
| 20260507115403 | 12 | 132 | 8.0 | 14.5 | 0.00 | 0.00 | 0.00 | 67 | 1015.7 |
| 20260507114504 | 12 | 111 | 11.3 | 16.1 | 0.00 | 0.00 | 0.00 | 67 | 1015.8 |
| 20260507113603 | 13 | 112 | 11.3 | 17.7 | 0.00 | 0.00 | 0.00 | 66 | 1015.9 |
| 20260507112703 | 13 | 109 | 11.3 | 20.9 | 0.00 | 0.00 | 0.00 | 69 | 1015.8 |
| 20260507111803 | 13 | 181 | 9.7 | 16.1 | 0.00 | 0.00 | 0.00 | 66 | 1015.8 |
| 20260507111118 | 13 | 181 | 9.7 | 16.1 | 0.00 | 0.00 | 0.00 | 65 | 1015.9 |
| 20260507110003 | 12 | 154 | 11.3 | 14.5 | 0.00 | 0.00 | 0.00 | 65 | 1016.0 |
| 20260507105403 | 12 | 132 | 11.3 | 14.5 | 0.00 | 0.00 | 0.00 | 64 | 1016.0 |
| 20260507104503 | 12 | 116 | 12.9 | 17.7 | 0.00 | 0.00 | 0.00 | 68 | 1016.1 |
| 20260507103817 | 12 | 126 | 11.3 | 17.7 | 0.00 | 0.00 | 0.00 | 69 | 1016.1 |
| 20260507102703 | 12 | 134 | 9.7 | 17.7 | 0.00 | 0.00 | 0.00 | 70 | 1016.2 |
| 20260507101803 | 11 | 111 | 8.0 | 11.3 | 0.00 | 0.00 | 0.00 | 73 | 1016.1 |
| 20260507100903 | 11 | 108 | 8.0 | 11.3 | 0.00 | 0.00 | 0.00 | 75 | 1016.2 |
| 20260507100004 | 11 | 110 | 9.7 | 16.1 | 0.00 | 0.00 | 0.00 | 78 | 1016.1 |
| 20260507095403 | 10 | 119 | 9.7 | 16.1 | 0.00 | 0.00 | 0.00 | 78 | 1016.2 |
| 20260507094503 | 10 | 111 | 11.3 | 16.1 | 0.00 | 0.00 | 0.00 | 80 | 1016.1 |
| 20260507093817 | 9 | 114 | 11.3 | 16.1 | 0.00 | 0.00 | 0.00 | 80 | 1016.2 |
| 20260507092918 | 9 | 113 | 11.3 | 17.7 | 0.00 | 0.00 | 0.00 | 81 | 1016.1 |
| 20260507091803 | 8 | 117 | 8.0 | 12.9 | 0.00 | 0.00 | 0.00 | 82 | 1016.1 |
| 20260507090903 | 8 | 118 | 6.4 | 11.3 | 0.00 | 0.00 | 0.00 | 83 | 1016.1 |
| 20260507090004 | 8 | 114 | 8.0 | 12.9 | 0.00 | 0.00 | 0.00 | 84 | 1016.2 |
| 20260507085403 | 7 | 100 | 9.7 | 12.9 | 0.00 | 0.00 | 0.00 | 84 | 1016.2 |
| 20260507084503 | 7 | 96 | 9.7 | 12.9 | 0.00 | 0.00 | 0.00 | 85 | 1016.2 |
| 20260507083816 | 7 | 98 | 8.0 | 11.3 | 0.00 | 0.00 | 0.00 | 85 | 1016.3 |
| 20260507082703 | 7 | 95 | 6.4 | 8.0 | 0.00 | 0.00 | 0.00 | 86 | 1016.4 |
| 20260507081803 | 7 | 109 | 6.4 | 9.7 | 0.00 | 0.00 | 0.00 | 85 | 1016.4 |
| 20260507080903 | 7 | 120 | 6.4 | 9.7 | 0.00 | 0.00 | 0.00 | 86 | 1016.3 |
| 20260507080004 | 7 | 109 | 8.0 | 11.3 | 0.00 | 0.00 | 0.00 | 86 | 1016.1 |
| 20260507075403 | 6 | 108 | 8.0 | 11.3 | 0.00 | 0.00 | 0.00 | 86 | 1016.1 |
| 20260507074717 | 6 | 112 | 8.0 | 9.7 | 0.00 | 0.00 | 0.00 | 86 | 1016.2 |
| 20260507073603 | 6 | 105 | 8.0 | 9.7 | 0.00 | 0.00 | 0.00 | 87 | 1016.0 |
| 20260507072703 | 6 | 105 | 6.4 | 9.7 | 0.00 | 0.00 | 0.00 | 87 | 1016.1 |
| 20260507071803 | 6 | 109 | 6.4 | 9.7 | 0.00 | 0.00 | 0.00 | 87 | 1016.1 |
| 20260507070903 | 6 | 109 | 6.4 | 11.3 | 0.00 | 0.00 | 0.00 | 88 | 1016.0 |
| 20260507070005 | 6 | 110 | 8.0 | 11.3 | 0.00 | 0.00 | 0.00 | 88 | 1015.9 |
| 20260507065403 | 6 | 111 | 6.4 | 6.4 | 0.00 | 0.00 | 0.00 | 88 | 1015.8 |
| 20260507064503 | 6 | 111 | 8.0 | 11.3 | 0.00 | 0.00 | 0.00 | 88 | 1015.8 |
| 20260507063603 | 6 | 111 | 9.7 | 11.3 | 0.00 | 0.00 | 0.00 | 88 | 1015.8 |
| 20260507062703 | 6 | 105 | 8.0 | 11.3 | 0.00 | 0.00 | 0.00 | 88 | 1015.7 |
| 20260507061803 | 6 | 107 | 9.7 | 11.3 | 0.00 | 0.00 | 0.00 | 88 | 1015.7 |
| 20260507060903 | 6 | 104 | 8.0 | 11.3 | 0.00 | 0.00 | 0.00 | 88 | 1015.7 |
| 20260507060003 | 6 | 109 | 8.0 | 11.3 | 0.00 | 0.00 | 0.00 | 88 | 1015.7 |
| 20260507055617 | 6 | 105 | 8.0 | 11.3 | 0.00 | 0.00 | 0.00 | 88 | 1015.7 |
| 20260507054503 | 6 | 104 | 8.0 | 11.3 | 0.00 | 0.00 | 0.00 | 88 | 1015.6 |
| 20260507053817 | 6 | 103 | 8.0 | 9.7 | 0.00 | 0.00 | 0.00 | 88 | 1015.6 |
| 20260507052703 | 6 | 96 | 6.4 | 11.3 | 0.00 | 0.00 | 0.00 | 88 | 1015.5 |
| 20260507051803 | 6 | 104 | 6.4 | 9.7 | 0.00 | 0.00 | 0.00 | 88 | 1015.6 |
| 20260507050903 | 6 | 106 | 6.4 | 6.4 | 0.00 | 0.00 | 0.00 | 88 | 1015.5 |
| 20260507050003 | 6 | 115 | 4.8 | 6.4 | 0.00 | 0.00 | 0.00 | 88 | 1015.6 |
| 20260507045403 | 6 | 113 | 4.8 | 4.8 | 0.00 | 0.00 | 0.00 | 88 | 1015.5 |
| 20260507044503 | 6 | 112 | 4.8 | 6.4 | 0.00 | 0.00 | 0.00 | 88 | 1015.5 |
| 20260507043817 | 6 | 110 | 4.8 | 6.4 | 0.00 | 0.00 | 0.00 | 88 | 1015.4 |
| 20260507042703 | 6 | 108 | 4.8 | 9.7 | 0.00 | 0.00 | 0.00 | 87 | 1015.4 |
| 20260507041803 | 6 | 106 | 6.4 | 9.7 | 0.00 | 0.00 | 0.00 | 87 | 1015.3 |
| 20260507040903 | 6 | 106 | 4.8 | 6.4 | 0.00 | 0.00 | 0.00 | 87 | 1015.5 |
| 20260507040003 | 6 | 102 | 4.8 | 6.4 | 0.00 | 0.00 | 0.00 | 87 | 1015.4 |
| 20260507035403 | 6 | 105 | 4.8 | 6.4 | 0.00 | 0.00 | 0.00 | 87 | 1015.4 |
| 20260507034503 | 6 | 108 | 3.2 | 4.8 | 0.00 | 0.00 | 0.00 | 87 | 1015.5 |
| 20260507033603 | 6 | 112 | 3.2 | 4.8 | 0.00 | 0.00 | 0.00 | 86 | 1015.5 |
| 20260507032703 | 6 | 82 | 0.0 | 1.6 | 0.00 | 0.00 | 0.00 | 86 | 1015.5 |
| 20260507031803 | 6 | 96 | 1.6 | 4.8 | 0.00 | 0.00 | 0.00 | 86 | 1015.5 |
| 20260507030903 | 6 | 96 | 3.2 | 4.8 | 0.00 | 0.00 | 0.00 | 86 | 1015.6 |
| 20260507030003 | 6 | 90 | 1.6 | 4.8 | 0.00 | 0.00 | 0.00 | 86 | 1015.5 |
| 20260507025403 | 6 | 88 | 1.6 | 3.2 | 0.00 | 0.00 | 0.00 | 86 | 1015.6 |
| 20260507024503 | 6 | 92 | 3.2 | 4.8 | 0.00 | 0.00 | 0.00 | 86 | 1015.6 |
| 20260507023603 | 6 | 108 | 4.8 | 6.4 | 0.00 | 0.00 | 0.00 | 86 | 1015.5 |
| 20260507022703 | 6 | 104 | 4.8 | 8.0 | 0.00 | 0.00 | 0.00 | 86 | 1015.6 |
| 20260507021803 | 6 | 106 | 4.8 | 8.0 | 0.00 | 0.00 | 0.00 | 86 | 1015.5 |
| 20260507021116 | 6 | 106 | 4.8 | 8.0 | 0.00 | 0.00 | 0.00 | 86 | 1015.6 |
| 20260507020003 | 6 | 106 | 6.4 | 8.0 | 0.00 | 0.00 | 0.00 | 86 | 1015.5 |
| 20260507015403 | 6 | 108 | 4.8 | 8.0 | 0.00 | 0.00 | 0.00 | 86 | 1015.5 |
| 20260507014504 | 6 | 94 | 4.8 | 6.4 | 0.00 | 0.00 | 0.00 | 85 | 1015.5 |
| 20260507013603 | 6 | 105 | 6.4 | 9.7 | 0.00 | 0.00 | 0.00 | 85 | 1015.5 |
| 20260507012704 | 6 | 110 | 4.8 | 8.0 | 0.00 | 0.00 | 0.00 | 85 | 1015.5 |
| 20260507011803 | 6 | 107 | 8.0 | 9.7 | 0.00 | 0.00 | 0.00 | 85 | 1015.6 |
| 20260507010904 | 7 | 103 | 8.0 | 9.7 | 0.00 | 0.00 | 0.00 | 84 | 1015.6 |
| 20260507010218 | 7 | 102 | 4.8 | 8.0 | 0.00 | 0.00 | 0.00 | 84 | 1015.6 |
| 20260507005403 | 7 | 103 | 6.4 | 8.0 | 0.00 | 0.00 | 0.00 | 84 | 1015.6 |
| 20260507004503 | 7 | 106 | 8.0 | 11.3 | 0.00 | 0.00 | 0.00 | 84 | 1015.5 |
| 20260507003603 | 7 | 107 | 8.0 | 12.9 | 0.00 | 0.00 | 0.00 | 84 | 1015.5 |
| 20260507002704 | 7 | 104 | 9.7 | 14.5 | 0.00 | 0.00 | 0.00 | 83 | 1015.5 |
| 20260507001804 | 7 | 96 | 9.7 | 14.5 | 0.00 | 0.00 | 0.00 | 83 | 1015.6 |
| 20260507000904 | 7 | 106 | 9.7 | 16.1 | 0.00 | 0.00 | 0.00 | 83 | 1015.8 |
| 20260507000004 | 7 | 107 | 8.0 | 12.9 | 0.00 | 0.00 | 0.00 | 82 | 1015.7 |
| 20260506235403 | 7 | 104 | 8.0 | 9.7 | 0.00 | 0.00 | 0.00 | 82 | 1015.7 |
| 20260506234503 | 7 | 102 | 8.0 | 9.7 | 0.00 | 0.00 | 0.00 | 82 | 1015.6 |
| 20260506233603 | 7 | 105 | 11.3 | 14.5 | 0.00 | 0.00 | 0.00 | 81 | 1015.6 |
| 20260506232703 | 7 | 100 | 11.3 | 16.1 | 0.00 | 0.00 | 0.00 | 80 | 1015.6 |
| 20260506231803 | 7 | 103 | 14.5 | 20.9 | 0.00 | 0.00 | 0.00 | 80 | 1015.6 |
| 20260506230903 | 7 | 106 | 12.9 | 17.7 | 0.00 | 0.00 | 0.00 | 79 | 1015.6 |
| 20260506230005 | 7 | 107 | 12.9 | 17.7 | 0.00 | 0.00 | 0.00 | 78 | 1015.6 |
| 20260506225403 | 8 | 104 | 9.7 | 14.5 | 0.00 | 0.00 | 0.00 | 78 | 1015.6 |
| 20260506224503 | 8 | 95 | 9.7 | 12.9 | 0.00 | 0.00 | 0.00 | 77 | 1015.6 |
| 20260506223603 | 8 | 94 | 9.7 | 12.9 | 0.00 | 0.00 | 0.00 | 77 | 1015.6 |
| 20260506222703 | 8 | 101 | 8.0 | 11.3 | 0.00 | 0.00 | 0.00 | 77 | 1015.4 |
| 20260506221803 | 8 | 99 | 8.0 | 11.3 | 0.00 | 0.00 | 0.00 | 76 | 1015.5 |
| 20260506220903 | 8 | 94 | 8.0 | 12.9 | 0.00 | 0.00 | 0.00 | 76 | 1015.6 |
| 20260506220218 | 8 | 92 | 9.7 | 12.9 | 0.00 | 0.00 | 0.00 | 75 | 1015.5 |
| 20260506215403 | 8 | 98 | 8.0 | 12.9 | 0.00 | 0.00 | 0.00 | 74 | 1015.3 |
| 20260506214503 | 8 | 97 | 9.7 | 14.5 | 0.00 | 0.00 | 0.00 | 74 | 1015.3 |
| 20260506213603 | 8 | 92 | 11.3 | 16.1 | 0.00 | 0.00 | 0.00 | 72 | 1015.2 |
| 20260506212918 | 8 | 91 | 11.3 | 16.1 | 0.00 | 0.00 | 0.00 | 72 | 1015.2 |
| 20260506211803 | 8 | 95 | 11.3 | 14.5 | 0.00 | 0.00 | 0.00 | 70 | 1015.1 |
| 20260506210903 | 8 | 92 | 9.7 | 12.9 | 0.00 | 0.00 | 0.00 | 68 | 1015.1 |
| 20260506210004 | 9 | 93 | 8.0 | 9.7 | 0.00 | 0.00 | 0.00 | 68 | 1015.1 |
| 20260506205617 | 9 | 97 | 8.0 | 9.7 | 0.00 | 0.00 | 0.00 | 68 | 1015.0 |
| 20260506204503 | 9 | 80 | 8.0 | 11.3 | 0.00 | 0.00 | 0.00 | 67 | 1015.0 |
| 20260506203603 | 9 | 81 | 6.4 | 11.3 | 0.00 | 0.00 | 0.00 | 66 | 1014.9 |
| 20260506202703 | 9 | 80 | 6.4 | 8.0 | 0.00 | 0.00 | 0.00 | 64 | 1014.8 |
| 20260506201803 | 10 | 79 | 4.8 | 8.0 | 0.00 | 0.00 | 0.00 | 63 | 1014.6 |
| 20260506200903 | 10 | 86 | 4.8 | 9.7 | 0.00 | 0.00 | 0.00 | 62 | 1014.6 |
| 20260506200003 | 10 | 85 | 4.8 | 8.0 | 0.00 | 0.00 | 0.00 | 61 | 1014.5 |
| 20260506195617 | 10 | 83 | 4.8 | 8.0 | 0.00 | 0.00 | 0.00 | 61 | 1014.5 |
| 20260506194503 | 10 | 82 | 4.8 | 8.0 | 0.00 | 0.00 | 0.00 | 60 | 1014.3 |
| 20260506193603 | 10 | 90 | 3.2 | 4.8 | 0.00 | 0.00 | 0.00 | 60 | 1014.4 |
| 20260506192917 | 10 | 94 | 4.8 | 9.7 | 0.00 | 0.00 | 0.00 | 59 | 1014.3 |
| 20260506191803 | 11 | 93 | 3.2 | 6.4 | 0.00 | 0.00 | 0.00 | 58 | 1014.5 |
| 20260506191118 | 11 | 91 | 4.8 | 6.4 | 0.00 | 0.00 | 0.00 | 58 | 1014.4 |
| 20260506190217 | 11 | 98 | 4.8 | 6.4 | 0.00 | 0.00 | 0.00 | 58 | 1014.3 |
| 20260506185403 | 11 | 102 | 4.8 | 6.4 | 0.00 | 0.00 | 0.00 | 58 | 1014.3 |
| 20260506184503 | 11 | 93 | 4.8 | 9.7 | 0.00 | 0.00 | 0.00 | 56 | 1014.3 |
| 20260506183603 | 11 | 90 | 6.4 | 11.3 | 0.00 | 0.00 | 0.00 | 55 | 1014.2 |
| 20260506182703 | 11 | 63 | 4.8 | 6.4 | 0.00 | 0.00 | 0.00 | 54 | 1014.2 |
| 20260506181803 | 12 | 79 | 3.2 | 6.4 | 0.00 | 0.00 | 0.00 | 54 | 1014.3 |
| 20260506180903 | 12 | 76 | 4.8 | 8.0 | 0.00 | 0.00 | 0.00 | 55 | 1014.2 |
| 20260506180004 | 12 | 85 | 8.0 | 12.9 | 0.00 | 0.00 | 0.00 | 55 | 1014.1 |
| 20260506175403 | 12 | 89 | 8.0 | 12.9 | 0.00 | 0.00 | 0.00 | 54 | 1014.0 |
| 20260506174503 | 12 | 82 | 8.0 | 11.3 | 0.00 | 0.00 | 0.00 | 54 | 1014.1 |
| 20260506173603 | 12 | 89 | 6.4 | 9.7 | 0.00 | 0.00 | 0.00 | 55 | 1014.0 |
| 20260506172703 | 12 | 93 | 8.0 | 16.1 | 0.00 | 0.00 | 0.00 | 54 | 1014.0 |
| 20260506171803 | 12 | 92 | 8.0 | 16.1 | 0.00 | 0.00 | 0.00 | 53 | 1014.0 |
| 20260506170903 | 12 | 81 | 6.4 | 11.3 | 0.00 | 0.00 | 0.00 | 54 | 1014.0 |
| 20260506170004 | 12 | 76 | 6.4 | 11.3 | 0.00 | 0.00 | 0.00 | 53 | 1014.0 |
| 20260506165618 | 12 | 81 | 6.4 | 11.3 | 0.00 | 0.00 | 0.00 | 53 | 1014.0 |
| 20260506164503 | 12 | 36 | 6.4 | 11.3 | 0.00 | 0.00 | 0.00 | 52 | 1014.0 |
| 20260506163603 | 12 | 62 | 6.4 | 9.7 | 0.00 | 0.00 | 0.00 | 52 | 1013.9 |
| 20260506162703 | 12 | 36 | 6.4 | 12.9 | 0.00 | 0.00 | 0.00 | 52 | 1013.9 |
| 20260506161803 | 12 | 57 | 8.0 | 12.9 | 0.00 | 0.00 | 0.00 | 52 | 1013.9 |
| 20260506160903 | 13 | 75 | 6.4 | 14.5 | 0.00 | 0.00 | 0.00 | 53 | 1013.9 |
| 20260506160003 | 13 | 15 | 6.4 | 14.5 | 0.00 | 0.00 | 0.00 | 51 | 1014.0 |
| 20260506155403 | 13 | 345 | 4.8 | 9.7 | 0.00 | 0.00 | 0.00 | 49 | 1013.9 |
| 20260506154717 | 13 | 16 | 4.8 | 9.7 | 0.00 | 0.00 | 0.00 | 48 | 1013.8 |
| 20260506153818 | 12 | 86 | 6.4 | 11.3 | 0.00 | 0.00 | 0.00 | 52 | 1013.9 |
| 20260506152703 | 13 | 91 | 6.4 | 11.3 | 0.00 | 0.00 | 0.00 | 52 | 1013.9 |
| 20260506151803 | 13 | 57 | 6.4 | 12.9 | 0.00 | 0.00 | 0.00 | 53 | 1014.0 |
| 20260506151116 | 12 | 90 | 8.0 | 14.5 | 0.00 | 0.00 | 0.00 | 54 | 1014.1 |
| 20260506150003 | 12 | 97 | 9.7 | 14.5 | 0.00 | 0.00 | 0.00 | 54 | 1014.0 |
| 20260506145403 | 12 | 90 | 8.0 | 14.5 | 0.00 | 0.00 | 0.00 | 52 | 1014.2 |
| 20260506144503 | 12 | 359 | 8.0 | 14.5 | 0.00 | 0.00 | 0.00 | 53 | 1014.2 |
| 20260506143603 | 13 | 34 | 9.7 | 16.1 | 0.00 | 0.00 | 0.00 | 54 | 1014.2 |
| 20260506142703 | 12 | 33 | 8.0 | 12.9 | 0.00 | 0.00 | 0.00 | 54 | 1014.2 |
| 20260506142016 | 12 | 59 | 8.0 | 11.3 | 0.00 | 0.00 | 0.00 | 55 | 1014.4 |
| 20260506140903 | 12 | 64 | 8.0 | 16.1 | 0.00 | 0.00 | 0.00 | 55 | 1014.5 |
| 20260506140003 | 12 | 60 | 8.0 | 14.5 | 0.00 | 0.00 | 0.00 | 54 | 1014.5 |
| 20260506135617 | 12 | 28 | 8.0 | 14.5 | 0.00 | 0.00 | 0.00 | 53 | 1014.4 |
| 20260506134718 | 12 | 6 | 9.7 | 16.1 | 0.00 | 0.00 | 0.00 | 54 | 1014.5 |
| 20260506133603 | 12 | 68 | 4.8 | 12.9 | 0.00 | 0.00 | 0.00 | 57 | 1014.6 |
| 20260506132917 | 12 | 71 | 8.0 | 16.1 | 0.00 | 0.00 | 0.00 | 56 | 1014.7 |
| 20260506132018 | 12 | 95 | 12.9 | 19.3 | 0.00 | 0.00 | 0.00 | 59 | 1014.7 |
| 20260506130903 | 12 | 55 | 9.7 | 16.1 | 0.00 | 0.00 | 0.00 | 57 | 1014.7 |
| 20260506130003 | 12 | 105 | 12.9 | 20.9 | 0.00 | 0.00 | 0.00 | 57 | 1014.7 |
| 20260506125403 | 12 | 77 | 8.0 | 16.1 | 0.00 | 0.00 | 0.00 | 57 | 1014.7 |
| 20260506124503 | 12 | 56 | 8.0 | 17.7 | 0.00 | 0.00 | 0.00 | 55 | 1014.7 |
| 20260506123603 | 12 | 44 | 8.0 | 16.1 | 0.00 | 0.00 | 0.00 | 56 | 1014.7 |